RH
91 71 68 70 72 73 72 66 64 63 61 67 73 64 59 63 63 68 70 70 70 67 65 62 59 54 54 57 58 54 51 49 47 48 44 43 56 35 22 34 76 93 62
84 68 65 67 73 72 67 67 65 62 64 69 72 68 69 71 73 73 76 76 74 71 64 59 56 55 60 64 65 64 63 58 53 52 54 56 78 74 38 37 86 91 70
65 64 65 68 67 68 69 68 67 68 68 69 72 74 74 73 75 81 83 81 79 72 63 58 54 59 61 63 66 70 66 63 61 59 60 68 79 83 64 40 35 51 53
89 70 62 61 53 54 59 59 65 70 71 70 69 68 68 70 76 80 79 74 69 65 63 60 58 61 68 74 75 68 62 63 67 69 67 79 92 86 81 66 39 47 58
81 70 52 46 38 34 38 42 45 47 48 49 55 58 60 69 74 76 75 76 79 76 76 71 76 76 73 66 64 57 62 65 66 73 75 78 88 83 77 75 57 45 58
73 45 39 25 23 24 24 24 26 28 29 31 36 42 45 45 48 50 50 52 56 62 74 73 64 47 42 39 38 47 60 68 68 68 83 76 77 83 80 77 75 58 72
51 28 22 21 22 23 24 25 25 30 35 38 40 40 42 42 43 43 44 45 45 45 45 46 45 45 44 43 41 39 37 36 38 54 64 65 61 65 75 76 72 71 64
30 22 22 22 24 24 24 23 23 29 33 38 42 44 44 43 42 42 42 43 45 47 47 43 37 32 34 44 52 55 56 53 49 68 82 72 73 68 67 68 67 73 69
47 26 25 24 22 23 24 22 18 19 34 42 44 41 38 38 38 37 35 46 43 40 33 20 19 20 23 25 29 41 31 22 28 71 77 61 65 66 71 69 74 76 77
49 54 61 57 56 62 62 28 21 20 23 30 34 34 55 82 74 76 54 44 43 39 33 31 28 26 24 24 25 24 18 19 61 68 66 65 68 66 70 66 65 72 76
48 54 57 65 69 68 63 55 55 46 75 61 72 59 81 84 86 77 64 66 68 63 59 43 43 36 31 38 56 50 44 56 65 64 61 62 64 64 61 66 64 61 57
52 55 63 64 71 64 52 57 67 65 71 76 83 75 82 76 71 70 74 70 74 70 67 77 70 62 61 63 62 58 60 62 62 41 56 56 53 47 19 20 27 50 64
49 51 60 67 66 69 52 55 61 63 65 78 76 70 79 70 79 77 75 73 75 69 68 73 72 78 76 68 47 62 64 49 41 54 53 55 54 47 25 17 18 28 36
45 49 58 61 45 46 58 56 55 57 64 64 74 75 83 77 74 76 72 74 72 71 70 69 71 72 73 76 78 75 67 53 45 54 55 57 57 49 28 17 17 20 25
42 44 51 64 70 52 39 56 51 53 67 69 70 77 72 51 74 60 63 66 68 65 63 63 64 63 67 69 69 65 64 60 60 46 50 53 49 42 28 19 19 20 25
36 39 51 63 72 56 55 52 49 63 67 68 68 69 60 35 47 44 53 58 64 62 58 53 60 65 67 70 68 63 62 60 50 47 55 57 47 39 32 21 21 22 24
35 39 45 58 67 72 58 60 56 57 54 58 59 58 47 42 51 49 50 58 66 65 59 58 64 66 66 66 66 65 63 58 53 48 42 56 47 45 42 29 24 24 24
34 37 44 54 65 73 63 58 54 54 56 54 56 57 60 62 61 56 50 58 61 65 61 70 66 67 67 67 66 64 62 59 56 51 50 49 51 49 49 44 32 26 26
35 39 44 50 60 68 71 62 58 55 49 55 54 56 57 63 62 64 62 61 66 68 70 70 70 70 71 69 68 68 62 61 57 53 51 51 52 49 53 50 50 42 30
41 45 48 54 62 70 69 64 57 52 52 52 50 49 51 54 58 58 49 52 53 61 62 64 67 66 71 71 66 72 72 65 61 59 55 50 52 53 53 52 54 53 46
45 52 57 63 62 69 64 58 53 50 48 49 48 51 54 59 57 55 55 55 58 62 63 62 61 59 61 71 78 79 77 71 75 74 68 57 52 54 54 54 52 50 50
50 52 53 57 57 51 50 51 49 50 49 50 52 58 57 62 64 65 68 65 67 64 59 55 59 69 71 73 76 78 81 77 73 66 64 64 60 55 55 55 55 58 58
54 53 54 56 57 48 45 53 55 52 51 52 55 54 58 65 69 67 62 58 56 59 65 68 51 56 70 73 75 76 80 76 76 74 69 65 71 66 61 64 58 58 60
62 59 57 57 58 58 50 56 62 63 67 64 60 60 63 65 55 55 56 56 57 58 62 62 77 77 77 78 79 83 80 85 98 91 78 74 64 71 75 78 67 85 66
64 65 62 57 55 58 63 67 68 70 67 65 60 59 59 58 58 62 60 60 60 58 63 87 93 92 94 98 97 96 87 73 80 96 94 85 77 72 83 77 89 88 84
59 62 64 58 58 58 59 63 63 65 66 65 63 65 68 70 74 68 62 57 69 79 84 89 92 80 83 87 90 82 89 97 94 98 99 98 100 84 82 93 94 97 97
Wind_Speed
8 8 9 10 10 9 10 10 8 7 6 5 4 4 4 4 2 2 3 3 3 3 2 3 3 5 6 7 9 9 10 10 8 7 6 6 6 7 9 7 6 3 3
9 12 10 10 9 10 9 8 8 8 7 6 5 4 2 1 2 4 3 4 4 5 5 5 5 6 7 11 14 14 14 13 11 7 6 5 7 4 5 1 3 1 2
7 13 11 10 10 10 9 9 8 7 5 5 3 1 1 3 3 3 4 5 5 5 6 7 7 9 14 18 18 17 16 14 13 10 7 10 8 7 9 9 5 4 3
17 7 12 12 11 11 10 10 9 7 5 4 3 2 2 3 4 5 5 6 6 6 7 10 11 14 17 17 15 14 15 14 13 12 6 12 6 10 9 9 6 4 1
11 7 13 13 13 13 12 10 8 6 5 3 1 1 2 3 4 6 7 8 9 10 11 12 13 14 13 12 12 12 12 11 9 6 6 11 8 12 11 12 9 6 3
8 16 14 14 14 13 11 9 7 6 4 3 1 1 0 2 3 5 6 7 8 9 10 11 11 12 12 12 12 12 12 11 10 7 7 19 14 13 15 14 11 8 4
12 16 15 14 13 10 8 7 5 4 4 4 2 2 2 2 3 4 5 6 6 7 8 9 10 11 11 11 11 11 11 11 10 7 4 15 17 16 17 16 12 10 10
15 16 13 12 10 9 8 7 7 7 6 5 4 4 4 4 5 6 6 7 8 8 8 9 9 10 10 10 10 10 9 8 6 3 13 11 12 15 18 19 15 13 13
10 12 11 9 8 7 7 8 8 7 6 6 6 6 5 5 7 7 6 5 7 7 8 9 9 9 9 9 8 8 8 7 3 1 13 13 13 17 19 16 13 12 14
11 9 5 6 6 7 8 9 6 7 7 7 7 7 9 10 14 13 9 13 11 10 10 10 10 10 11 10 10 10 9 6 3 3 11 14 14 19 19 16 13 12 11
11 10 8 10 7 3 5 8 6 8 10 9 8 11 9 12 9 12 16 17 17 15 16 14 13 13 13 10 11 13 10 3 4 7 13 17 19 19 19 17 14 14 14
11 9 9 4 5 6 2 6 8 8 5 7 6 9 5 6 4 10 13 17 16 18 20 14 20 17 10 9 11 12 10 8 13 10 15 18 21 19 17 15 15 16 16
10 9 8 9 6 7 1 2 2 3 3 3 6 0 1 5 6 9 11 11 14 14 15 16 20 15 14 17 16 13 14 16 14 9 18 19 22 22 19 16 15 14 14
13 14 8 6 5 7 5 1 4 3 2 3 5 9 1 1 5 6 5 9 6 10 11 13 13 14 18 19 19 20 19 17 16 12 19 19 22 23 19 18 17 16 15
14 13 12 9 4 2 3 2 3 5 1 6 2 6 7 1 6 5 7 7 7 8 9 11 14 15 15 16 17 18 21 21 17 18 20 23 21 24 21 18 17 17 16
11 12 12 8 7 5 5 5 0 3 2 4 2 7 10 4 5 6 8 8 7 8 12 16 18 17 17 17 18 17 22 25 22 19 18 20 23 23 20 20 18 17 17
12 11 11 10 8 8 4 3 1 4 5 3 4 10 7 5 6 9 9 10 10 13 16 17 17 19 20 20 22 22 21 25 26 22 22 24 26 25 23 21 21 20 19
10 13 12 9 7 8 5 6 3 5 7 5 7 7 9 12 11 12 12 13 15 18 21 19 21 22 22 24 26 25 26 26 27 28 26 26 26 26 26 24 22 23 22
6 6 5 7 9 9 7 7 7 9 6 1 7 5 8 8 8 14 16 15 17 21 22 22 25 25 26 26 28 28 28 28 30 30 30 29 30 25 26 26 25 25 26
5 5 6 3 3 6 10 6 7 8 6 7 5 9 14 14 16 17 18 28 25 23 24 25 26 28 31 32 33 34 34 35 35 33 30 33 32 32 30 31 27 27 27
7 6 6 7 11 8 3 5 9 7 7 7 7 13 15 11 20 23 28 30 26 25 23 26 28 29 31 28 31 33 34 35 34 34 37 38 36 35 36 35 37 37 33
10 9 8 1 3 5 1 5 6 8 9 8 9 10 15 14 20 25 23 23 21 25 28 27 24 26 27 26 27 31 34 35 30 30 36 39 42 42 40 38 39 38 35
13 11 9 7 5 3 4 2 3 3 6 10 12 18 21 20 20 17 18 20 21 23 25 26 27 27 30 29 25 27 31 30 30 28 29 28 25 37 39 36 38 41 38
10 10 7 5 4 7 7 4 7 8 10 15 19 16 18 17 18 16 19 20 22 24 27 31 24 25 28 33 29 24 26 29 23 28 31 32 35 29 33 39 37 30 38
7 6 6 5 8 9 11 12 13 12 15 14 14 17 17 14 17 20 21 23 27 30 26 19 20 21 21 22 23 27 32 34 34 24 29 27 26 33 28 32 32 35 31
7 6 5 6 7 10 13 13 12 14 15 15 16 16 15 20 21 23 25 27 26 20 21 22 22 27 27 30 27 29 28 27 27 28 28 36 33 31 29 24 27 31 29
Wind_Direction
127 123 120 108 113 111 99 92 95 96 99 103 96 92 86 75 63 6 346 1 355 4 340 302 314 328 337 353 340 341 329 323 325 334 349 355 12 8 352 9 10 41 58
141 133 124 129 122 100 100 101 98 95 96 102 107 100 105 107 302 314 319 324 327 320 307 296 303 312 336 337 332 333 319 319 318 323 332 335 348 14 349 139 150 100 38
115 144 138 120 106 109 106 93 86 85 89 94 97 94 312 309 325 321 312 307 302 305 296 288 296 309 318 322 322 320 316 315 313 317 334 338 306 321 345 333 320 291 299
127 135 123 116 109 102 99 95 90 85 81 67 45 8 330 335 313 303 307 311 308 298 285 286 295 304 311 313 312 317 315 314 316 319 324 2 346 334 338 340 310 288 306
146 140 119 117 113 105 94 86 85 88 82 74 60 356 331 320 320 309 305 299 298 296 292 297 296 303 308 313 316 315 310 309 311 321 329 302 317 298 307 315 304 281 241
131 131 122 115 103 93 88 79 70 63 61 71 78 85 345 304 293 293 295 295 295 295 297 301 307 313 316 315 315 314 312 313 310 292 320 302 312 294 297 297 293 274 245
132 121 120 111 102 94 83 69 52 37 35 33 25 22 17 346 334 342 337 338 332 328 323 326 326 322 321 322 321 316 311 308 305 322 299 286 291 287 288 296 270 262 259
124 122 119 107 98 85 67 48 37 36 32 26 30 31 29 27 17 6 358 351 348 346 342 341 337 335 334 333 330 326 324 325 333 46 310 282 293 279 285 282 269 264 254
117 118 118 105 94 80 59 42 41 49 50 49 54 51 40 29 15 4 357 9 359 348 343 341 340 340 340 335 330 326 327 329 331 135 303 286 286 285 285 293 274 271 260
128 116 96 61 49 42 26 33 46 50 50 54 48 43 46 40 15 1 11 357 350 342 338 333 333 333 333 330 331 331 331 341 67 291 288 284 281 283 288 287 279 274 269
138 138 124 138 116 34 2 10 43 59 52 49 46 53 53 42 3 347 351 357 355 351 347 336 338 337 337 342 347 345 349 40 340 272 283 276 280 282 283 278 276 271 262
154 151 155 119 166 133 146 3 11 27 18 44 23 47 42 323 322 346 355 348 346 350 351 348 337 338 343 342 334 321 320 313 272 273 279 274 278 284 286 282 276 269 265
167 171 171 175 156 136 131 126 248 342 29 328 351 230 299 8 345 359 342 342 340 344 341 332 333 331 317 299 284 267 257 268 280 278 276 272 272 278 282 278 276 273 268
169 175 177 167 148 131 145 93 113 150 199 59 245 330 291 278 280 286 289 280 320 315 316 312 314 308 306 314 316 308 297 288 280 258 277 275 272 276 276 270 267 265 264
177 178 188 184 176 236 102 218 199 183 240 226 253 278 295 255 272 304 306 337 318 325 318 301 291 288 290 290 296 297 293 290 276 282 264 266 273 276 275 264 260 259 261
181 180 176 183 224 222 151 274 239 349 183 11 261 258 292 319 314 333 317 324 328 307 295 302 312 316 311 302 300 281 284 288 291 261 266 268 270 272 272 265 256 253 254
182 189 201 198 232 227 228 265 214 224 272 205 258 286 285 290 293 304 313 307 309 294 292 304 295 291 292 292 289 289 288 289 290 290 257 257 261 270 272 263 256 251 248
200 202 200 197 212 250 202 241 211 237 263 244 257 253 280 300 304 303 298 292 292 286 298 298 291 293 292 289 288 284 282 278 277 279 278 273 262 257 269 268 257 254 250
182 180 186 220 223 227 244 245 256 261 287 287 235 275 253 248 270 281 293 296 295 294 298 297 295 292 290 288 288 287 288 284 278 271 266 268 268 257 253 262 264 260 252
195 210 221 216 222 205 208 248 265 273 297 274 271 251 265 278 290 293 313 318 311 298 292 287 286 284 285 287 286 283 282 273 269 270 271 263 261 262 251 248 250 251 251
86 99 145 201 227 201 207 234 235 227 243 255 267 285 283 294 291 301 306 303 287 286 284 282 284 287 286 286 289 286 283 282 275 274 269 260 257 255 257 250 250 249 250
96 93 99 156 201 140 271 260 299 296 304 301 319 275 316 301 285 289 302 305 302 294 294 296 297 298 294 292 288 289 290 289 287 284 272 266 260 255 249 248 247 247 241
103 92 79 61 25 12 102 302 277 289 290 298 291 278 283 286 295 304 300 305 307 304 302 295 301 295 297 292 289 285 291 285 295 283 272 273 281 262 247 252 252 244 237
88 92 66 57 39 337 336 299 285 311 291 282 291 294 294 290 304 292 302 304 299 296 294 300 295 284 284 289 293 285 275 284 309 301 287 277 271 274 262 247 234 246 241
65 54 42 39 356 334 341 331 328 314 305 303 302 301 306 301 291 302 297 298 300 303 311 303 287 285 287 284 286 294 287 282 282 295 295 292 275 271 275 255 254 243 227
39 14 7 356 337 331 322 320 318 311 315 314 316 313 309 300 307 308 308 309 306 293 284 283 288 297 292 293 289 304 298 303 302 300 297 292 293 275 268 268 263 260 246